• In Uzbekistan
  • List of Countries
  • For 7 days
  • Water Temperature
  • Satellite Maps
  • Weather Map
  • Weather Widgets
  • user-avatar
    Login

    Hourly Weather Viedma

    Today, 24 February, Friday

    Time Temperature Precipitation Wind Pressure Humidity
    00:00 +26°C° 0 mm 9 mps 752 mmHg 52%
    01:00 +26°C° 0 mm 8 mps 752 mmHg 50%
    02:00 +27°C° 0 mm 7 mps 752 mmHg 48%
    03:00 +26°C° 0.5 mm 6 mps 752 mmHg 48%
    04:00 +26°C° 0.5 mm 5 mps 752 mmHg 49%
    05:00 +26°C° 0.5 mm 3 mps 753 mmHg 49%
    06:00 +27°C° 0.5 mm 4 mps 753 mmHg 47%
    07:00 +29°C° 0.5 mm 5 mps 753 mmHg 44%
    08:00 +30°C° 0 mm 7 mps 754 mmHg 44%
    09:00 +32°C° 0.1 mm 7 mps 754 mmHg 41%
    10:00 +33°C° 0.1 mm 7 mps 754 mmHg 39%
    11:00 +34°C° 0.1 mm 7 mps 754 mmHg 37%
    12:00 +34°C° 0 mm 7 mps 754 mmHg 36%
    13:00 +34°C° 0 mm 7 mps 754 mmHg 36%
    14:00 +34°C° 0 mm 7 mps 754 mmHg 36%
    15:00 +32°C° 0 mm 7 mps 754 mmHg 41%
    16:00 +30°C° 0 mm 7 mps 755 mmHg 47%
    17:00 +29°C° 0 mm 7 mps 755 mmHg 52%
    18:00 +27°C° 0 mm 7 mps 755 mmHg 62%
    19:00 +24°C° 0 mm 7 mps 755 mmHg 71%
    20:00 +22°C° 0 mm 6 mps 756 mmHg 80%
    21:00 +22°C° 0 mm 6 mps 756 mmHg 82%
    22:00 +22°C° 0 mm 6 mps 756 mmHg 84%
    23:00 +21°C° 0 mm 6 mps 757 mmHg 85%

    Tomorrow, 25 February, Saturday

    Time Temperature Precipitation Wind Pressure Humidity
    00:00 +21°C° 0 mm 5 mps 757 mmHg 85%
    01:00 +21°C° 0 mm 5 mps 757 mmHg 85%
    02:00 +21°C° 0 mm 4 mps 757 mmHg 84%
    03:00 +21°C° 0 mm 4 mps 757 mmHg 84%
    04:00 +21°C° 0 mm 4 mps 756 mmHg 84%
    05:00 +21°C° 0 mm 4 mps 756 mmHg 84%
    06:00 +21°C° 0 mm 3 mps 756 mmHg 82%
    07:00 +21°C° 0 mm 3 mps 757 mmHg 80%
    08:00 +21°C° 0 mm 3 mps 757 mmHg 78%
    09:00 +24°C° 0 mm 3 mps 757 mmHg 72%
    10:00 +25°C° 0 mm 2 mps 757 mmHg 66%
    11:00 +26°C° 0 mm 2 mps 757 mmHg 60%
    12:00 +27°C° 0 mm 3 mps 756 mmHg 56%
    13:00 +29°C° 0 mm 3 mps 756 mmHg 52%
    14:00 +30°C° 0 mm 3 mps 755 mmHg 47%
    15:00 +30°C° 0 mm 4 mps 755 mmHg 48%
    16:00 +30°C° 0 mm 4 mps 754 mmHg 49%
    17:00 +29°C° 0 mm 5 mps 754 mmHg 50%
    18:00 +28°C° 0 mm 5 mps 754 mmHg 57%
    19:00 +26°C° 0 mm 5 mps 754 mmHg 64%
    20:00 +25°C° 0 mm 5 mps 754 mmHg 71%
    21:00 +23°C° 0 mm 5 mps 754 mmHg 73%
    22:00 +23°C° 0 mm 5 mps 755 mmHg 76%
    23:00 +23°C° 0 mm 5 mps 755 mmHg 79%

    Day after tomorrow, 26 February, Sunday

    Time Temperature Precipitation Wind Pressure Humidity
    00:00 +22°C° 0 mm 4 mps 754 mmHg 80%
    01:00 +22°C° 0 mm 4 mps 754 mmHg 82%
    02:00 +22°C° 0 mm 4 mps 754 mmHg 83%
    03:00 +22°C° 0 mm 4 mps 754 mmHg 84%
    04:00 +22°C° 0 mm 4 mps 754 mmHg 85%
    05:00 +21°C° 0 mm 4 mps 754 mmHg 87%
    06:00 +23°C° 0 mm 4 mps 754 mmHg 82%
    07:00 +25°C° 0 mm 4 mps 754 mmHg 76%
    08:00 +26°C° 0 mm 4 mps 754 mmHg 71%
    09:00 +27°C° 0 mm 4 mps 754 mmHg 65%
    10:00 +29°C° 0 mm 5 mps 754 mmHg 58%
    11:00 +32°C° 0 mm 5 mps 754 mmHg 52%
    12:00 +33°C° 0 mm 5 mps 754 mmHg 50%
    13:00 +34°C° 0 mm 5 mps 753 mmHg 48%
    14:00 +35°C° 0 mm 5 mps 753 mmHg 46%
    15:00 +34°C° 0 mm 6 mps 752 mmHg 49%
    16:00 +34°C° 0 mm 6 mps 752 mmHg 51%
    17:00 +33°C° 0 mm 7 mps 752 mmHg 53%
    18:00 +30°C° 0.6 mm 7 mps 752 mmHg 59%
    19:00 +29°C° 0.6 mm 8 mps 751 mmHg 65%
    20:00 +27°C° 0.6 mm 8 mps 751 mmHg 70%
    21:00 +27°C° 1.9 mm 7 mps 752 mmHg 72%
    22:00 +27°C° 1.9 mm 6 mps 752 mmHg 73%
    23:00 +27°C° 1.9 mm 5 mps 752 mmHg 74%

    27 February, Monday

    Time Temperature Precipitation Wind Pressure Humidity
    00:00 +27°C° 0.4 mm 4 mps 752 mmHg 74%
    01:00 +27°C° 0.4 mm 4 mps 752 mmHg 75%
    02:00 +26°C° 0.4 mm 4 mps 752 mmHg 76%
    03:00 +27°C° 0.2 mm 4 mps 752 mmHg 75%
    04:00 +27°C° 0.2 mm 3 mps 751 mmHg 73%
    05:00 +27°C° 0.2 mm 3 mps 751 mmHg 72%
    06:00 +27°C° 0.1 mm 3 mps 751 mmHg 71%
    07:00 +27°C° 0.1 mm 2 mps 752 mmHg 69%
    08:00 +28°C° 0.1 mm 2 mps 752 mmHg 68%
    09:00 +29°C° 0 mm 2 mps 752 mmHg 62%
    10:00 +30°C° 0 mm 3 mps 752 mmHg 57%
    11:00 +31°C° 0 mm 3 mps 752 mmHg 51%
    12:00 +31°C° 0.1 mm 3 mps 752 mmHg 52%
    13:00 +32°C° 0.1 mm 4 mps 752 mmHg 54%
    14:00 +32°C° 0.1 mm 4 mps 751 mmHg 55%
    15:00 +30°C° 1.3 mm 4 mps 751 mmHg 58%
    16:00 +29°C° 1.3 mm 4 mps 751 mmHg 62%
    17:00 +28°C° 1.3 mm 3 mps 751 mmHg 66%
    18:00 +28°C° 0.1 mm 3 mps 751 mmHg 67%
    19:00 +27°C° 0.1 mm 2 mps 751 mmHg 68%
    20:00 +27°C° 0.1 mm 2 mps 751 mmHg 69%
    21:00 +27°C° 0 mm 3 mps 751 mmHg 72%
    22:00 +26°C° 0 mm 3 mps 751 mmHg 75%
    23:00 +26°C° 0 mm 4 mps 751 mmHg 78%

    28 February, Tuesday

    Time Temperature Precipitation Wind Pressure Humidity
    00:00 +25°C° 0 mm 4 mps 750 mmHg 80%
    01:00 +25°C° 0 mm 4 mps 750 mmHg 82%
    02:00 +25°C° 0 mm 4 mps 749 mmHg 85%
    03:00 +25°C° 0 mm 4 mps 749 mmHg 86%
    04:00 +23°C° 0 mm 4 mps 749 mmHg 87%
    05:00 +24°C° 0 mm 3 mps 749 mmHg 88%
    06:00 +25°C° 0 mm 4 mps 749 mmHg 78%
    07:00 +26°C° 0 mm 4 mps 749 mmHg 68%
    08:00 +27°C° 0 mm 5 mps 749 mmHg 58%
    09:00 +29°C° 0 mm 5 mps 749 mmHg 46%
    10:00 +32°C° 0 mm 6 mps 748 mmHg 34%
    11:00 +34°C° 0 mm 7 mps 748 mmHg 21%
    12:00 +35°C° 0 mm 8 mps 748 mmHg 21%
    13:00 +37°C° 0 mm 8 mps 747 mmHg 20%
    14:00 +38°C° 0 mm 9 mps 747 mmHg 20%
    15:00 +38°C° 0 mm 9 mps 746 mmHg 20%
    16:00 +38°C° 0 mm 9 mps 746 mmHg 20%
    17:00 +38°C° 0 mm 9 mps 745 mmHg 20%
    18:00 +35°C° 0 mm 8 mps 745 mmHg 22%
    19:00 +34°C° 0 mm 7 mps 746 mmHg 24%
    20:00 +33°C° 0 mm 6 mps 746 mmHg 26%
    21:00 +32°C° 0 mm 6 mps 746 mmHg 29%
    22:00 +32°C° 0 mm 6 mps 746 mmHg 31%
    23:00 +30°C° 0 mm 6 mps 746 mmHg 33%

    1 March, Wednesday

    Time Temperature Precipitation Wind Pressure Humidity
    00:00 +29°C° 0 mm 6 mps 746 mmHg 37%
    01:00 +28°C° 0 mm 5 mps 746 mmHg 41%
    02:00 +27°C° 0 mm 4 mps 746 mmHg 45%
    03:00 +27°C° 0 mm 4 mps 746 mmHg 45%
    04:00 +27°C° 0 mm 5 mps 746 mmHg 45%
    05:00 +27°C° 0 mm 5 mps 746 mmHg 46%
    06:00 +27°C° 0.1 mm 5 mps 747 mmHg 46%
    07:00 +27°C° 0.1 mm 6 mps 747 mmHg 47%
    08:00 +27°C° 0.1 mm 6 mps 747 mmHg 48%
    09:00 +27°C° 0.1 mm 6 mps 748 mmHg 46%
    10:00 +26°C° 0.1 mm 6 mps 748 mmHg 45%
    11:00 +26°C° 0.1 mm 6 mps 749 mmHg 43%
    12:00 +26°C° 0 mm 6 mps 749 mmHg 41%
    13:00 +27°C° 0 mm 6 mps 749 mmHg 39%
    14:00 +27°C° 0 mm 5 mps 749 mmHg 37%
    15:00 +27°C° 0 mm 6 mps 749 mmHg 38%
    16:00 +26°C° 0 mm 6 mps 748 mmHg 39%
    17:00 +26°C° 0 mm 6 mps 748 mmHg 40%
    18:00 +24°C° 0 mm 6 mps 749 mmHg 46%
    19:00 +22°C° 0 mm 7 mps 749 mmHg 52%
    20:00 +21°C° 0 mm 7 mps 749 mmHg 59%
    21:00 +21°C° 0 mm 7 mps 749 mmHg 62%
    22:00 +21°C° 0 mm 6 mps 749 mmHg 66%
    23:00 +21°C° 0 mm 6 mps 749 mmHg 69%
    Show more